| time (UTC) | temp F | wind direction | speed knots | gust knots | rain 1hr in | rain 24hr in | rain mn in | humidity % | barometer mb |
| 20260904091005 | 64 | 28 | 0.0 | 3.5 | 0.00 | 0.00 | 0.00 | 93 | 1011.4 |
| 20260904090505 | 64 | 5 | 0.9 | 3.5 | 0.00 | 0.00 | 0.00 | 93 | 1011.2 |
| 20260904090004 | 64 | 13 | 1.7 | 3.5 | 0.00 | 0.00 | 0.00 | 93 | 1011.1 |
| 20260904085504 | 64 | 11 | 0.9 | 3.5 | 0.00 | 0.00 | 0.00 | 93 | 1011.0 |
| 20260904085001 | 64 | 342 | 0.9 | 2.6 | 0.00 | 0.00 | 0.00 | 93 | 1011.0 |
| 20260904084501 | 64 | 344 | 0.0 | 2.6 | 0.00 | 0.00 | 0.00 | 93 | 1010.9 |
| 20260904084000 | 64 | 344 | 0.9 | 3.5 | 0.00 | 0.00 | 0.00 | 93 | 1010.8 |
| 20260904083604 | 64 | 5 | 0.9 | 3.5 | 0.00 | 0.00 | 0.00 | 93 | 1010.8 |
| 20260904083104 | 64 | 360 | 0.9 | 4.3 | 0.00 | 0.00 | 0.00 | 93 | 1010.7 |
| 20260904082600 | 64 | 18 | 0.9 | 4.3 | 0.00 | 0.00 | 0.00 | 93 | 1010.7 |
| 20260904082100 | 64 | 319 | 0.9 | 4.3 | 0.00 | 0.00 | 0.00 | 93 | 1010.8 |
| 20260904081600 | 64 | 355 | 0.9 | 4.3 | 0.00 | 0.00 | 0.00 | 93 | 1010.7 |
| 20260904081059 | 64 | 9 | 0.9 | 4.3 | 0.00 | 0.00 | 0.00 | 93 | 1010.8 |
| 20260904080602 | 64 | 5 | 0.0 | 3.5 | 0.00 | 0.00 | 0.00 | 93 | 1010.7 |
| 20260904080117 | 64 | 360 | 0.0 | 3.5 | 0.00 | 0.00 | 0.00 | 93 | 1010.8 |
| 20260904075602 | 64 | 5 | 0.0 | 3.5 | 0.00 | 0.00 | 0.00 | 93 | 1010.8 |
| 20260904075057 | 64 | 5 | 0.0 | 3.5 | 0.00 | 0.00 | 0.00 | 92 | 1010.7 |
| 20260904074556 | 64 | 325 | 0.9 | 3.5 | 0.00 | 0.00 | 0.00 | 93 | 1010.7 |
| 20260904074059 | 64 | 331 | 0.9 | 5.2 | 0.00 | 0.00 | 0.00 | 93 | 1010.6 |
| 20260904073555 | 65 | 340 | 1.7 | 5.2 | 0.00 | 0.00 | 0.00 | 93 | 1010.6 |
| 20260904073054 | 65 | 13 | 1.7 | 3.5 | 0.00 | 0.00 | 0.00 | 92 | 1010.6 |
| 20260904072557 | 65 | 355 | 1.7 | 3.5 | 0.00 | 0.00 | 0.00 | 92 | 1010.7 |
| 20260904072057 | 65 | 5 | 0.0 | 4.3 | 0.00 | 0.00 | 0.00 | 92 | 1010.6 |
| 20260904071554 | 65 | 360 | 0.9 | 3.5 | 0.00 | 0.00 | 0.00 | 92 | 1010.6 |
| 20260904071053 | 65 | 355 | 0.9 | 4.3 | 0.00 | 0.00 | 0.00 | 92 | 1010.7 |
| 20260904070552 | 65 | 355 | 0.9 | 4.3 | 0.00 | 0.00 | 0.00 | 92 | 1010.6 |
| 20260904070058 | 65 | 360 | 0.9 | 4.3 | 0.00 | 0.00 | 0.00 | 92 | 1010.6 |
| 20260904065553 | 65 | 5 | 0.9 | 5.2 | 0.00 | 0.00 | 0.00 | 91 | 1010.6 |
| 20260904065051 | 65 | 345 | 0.9 | 5.2 | 0.00 | 0.00 | 0.00 | 91 | 1010.7 |
| 20260904064551 | 65 | 355 | 1.7 | 7.8 | 0.00 | 0.00 | 0.00 | 91 | 1010.5 |
| 20260904064050 | 66 | 42 | 2.6 | 7.8 | 0.00 | 0.00 | 0.00 | 91 | 1010.5 |
| 20260904063549 | 66 | 5 | 2.6 | 8.7 | 0.00 | 0.00 | 0.00 | 91 | 1010.4 |
| 20260904063109 | 66 | 5 | 2.6 | 8.7 | 0.00 | 0.00 | 0.00 | 90 | 1010.4 |
| 20260904062547 | 66 | 40 | 2.6 | 7.0 | 0.00 | 0.00 | 0.00 | 90 | 1010.3 |
| 20260904062047 | 66 | 17 | 1.7 | 7.0 | 0.00 | 0.00 | 0.00 | 90 | 1010.3 |
| 20260904061546 | 67 | 26 | 2.6 | 8.7 | 0.00 | 0.00 | 0.00 | 90 | 1010.3 |
| 20260904061047 | 67 | 342 | 3.5 | 8.7 | 0.00 | 0.00 | 0.00 | 89 | 1010.2 |
| 20260904060543 | 67 | 30 | 3.5 | 7.8 | 0.00 | 0.00 | 0.00 | 89 | 1010.3 |
| 20260904060049 | 67 | 26 | 1.7 | 7.0 | 0.00 | 0.00 | 0.00 | 89 | 1010.3 |
| 20260904055542 | 67 | 5 | 1.7 | 7.0 | 0.00 | 0.00 | 0.00 | 89 | 1010.3 |
| 20260904055042 | 67 | 24 | 3.5 | 7.0 | 0.00 | 0.00 | 0.00 | 89 | 1010.3 |
| 20260904054546 | 68 | 13 | 2.6 | 7.0 | 0.00 | 0.00 | 0.00 | 89 | 1010.4 |
| 20260904054043 | 68 | 26 | 2.6 | 7.8 | 0.00 | 0.00 | 0.00 | 88 | 1010.3 |
| 20260904053540 | 68 | 17 | 3.5 | 7.8 | 0.00 | 0.00 | 0.00 | 89 | 1010.3 |
| 20260904053054 | 68 | 23 | 2.6 | 8.7 | 0.00 | 0.00 | 0.00 | 89 | 1010.3 |
| 20260904052539 | 68 | 343 | 2.6 | 8.7 | 0.00 | 0.00 | 0.00 | 89 | 1010.2 |
| 20260904052040 | 68 | 30 | 3.5 | 7.0 | 0.00 | 0.00 | 0.00 | 89 | 1010.0 |
| 20260904051538 | 68 | 21 | 2.6 | 8.7 | 0.00 | 0.00 | 0.00 | 89 | 1009.8 |
| 20260904051037 | 68 | 360 | 3.5 | 8.7 | 0.00 | 0.00 | 0.00 | 89 | 1009.6 |
| 20260904050535 | 68 | 71 | 2.6 | 7.0 | 0.00 | 0.00 | 0.00 | 89 | 1009.4 |
| 20260904050034 | 68 | 14 | 2.6 | 9.6 | 0.00 | 0.00 | 0.00 | 89 | 1009.4 |
| 20260904045534 | 68 | 24 | 3.5 | 10.4 | 0.00 | 0.00 | 0.00 | 89 | 1009.6 |
| 20260904045034 | 68 | 32 | 4.3 | 10.4 | 0.00 | 0.00 | 0.00 | 89 | 1009.5 |
| 20260904044537 | 68 | 24 | 3.5 | 13.0 | 0.00 | 0.00 | 0.00 | 89 | 1009.4 |
| 20260904044034 | 68 | 85 | 5.2 | 13.0 | 0.00 | 0.00 | 0.00 | 90 | 1009.4 |
| 20260904043533 | 68 | 344 | 4.3 | 10.4 | 0.00 | 0.00 | 0.00 | 90 | 1009.4 |
| 20260904043040 | 68 | 34 | 6.1 | 11.3 | 0.00 | 0.00 | 0.00 | 90 | 1009.4 |
| 20260904042533 | 68 | 22 | 4.3 | 11.3 | 0.00 | 0.00 | 0.00 | 90 | 1009.4 |
| 20260904042035 | 68 | 30 | 3.5 | 9.6 | 0.00 | 0.00 | 0.00 | 90 | 1009.4 |
| 20260904041532 | 68 | 25 | 4.3 | 8.7 | 0.00 | 0.00 | 0.00 | 90 | 1009.3 |
| 20260904041032 | 68 | 15 | 4.3 | 10.4 | 0.00 | 0.00 | 0.00 | 90 | 1009.3 |
| 20260904040531 | 67 | 355 | 4.3 | 10.4 | 0.00 | 0.00 | 0.00 | 90 | 1009.2 |
| 20260904040031 | 68 | 27 | 3.5 | 10.4 | 0.00 | 0.00 | 0.00 | 90 | 1009.3 |
| 20260904035531 | 68 | 5 | 4.3 | 10.4 | 0.00 | 0.00 | 0.00 | 89 | 1009.2 |
| 20260904035031 | 68 | 346 | 5.2 | 11.3 | 0.00 | 0.00 | 0.00 | 89 | 1009.1 |
| 20260904034530 | 68 | 342 | 5.2 | 12.2 | 0.00 | 0.00 | 0.00 | 89 | 1009.2 |
| 20260904034030 | 68 | 347 | 5.2 | 12.2 | 0.00 | 0.00 | 0.00 | 88 | 1009.2 |
| 20260904033533 | 69 | 5 | 3.5 | 13.0 | 0.00 | 0.00 | 0.00 | 87 | 1008.9 |
| 20260904033032 | 69 | 307 | 7.8 | 13.0 | 0.00 | 0.00 | 0.00 | 87 | 1009.3 |
| 20260904032528 | 69 | 17 | 3.5 | 8.7 | 0.00 | 0.00 | 0.00 | 86 | 1008.5 |
| 20260904032029 | 70 | 22 | 3.5 | 8.7 | 0.00 | 0.00 | 0.00 | 86 | 1008.2 |
| 20260904031529 | 70 | 338 | 3.5 | 8.7 | 0.00 | 0.00 | 0.00 | 85 | 1008.4 |
| 20260904031029 | 70 | 324 | 3.5 | 7.8 | 0.00 | 0.00 | 0.00 | 85 | 1008.3 |
| 20260904030531 | 71 | 36 | 2.6 | 7.0 | 0.00 | 0.00 | 0.00 | 84 | 1008.3 |
| 20260904030035 | 71 | 48 | 0.9 | 7.0 | 0.00 | 0.00 | 0.00 | 84 | 1008.4 |
| 20260904025527 | 71 | 339 | 0.9 | 7.0 | 0.00 | 0.00 | 0.00 | 84 | 1008.2 |
| 20260904025027 | 72 | 295 | 2.6 | 7.0 | 0.00 | 0.00 | 0.00 | 83 | 1008.1 |
| 20260904024527 | 72 | 312 | 1.7 | 7.0 | 0.00 | 0.00 | 0.00 | 84 | 1008.0 |
| 20260904024029 | 72 | 328 | 0.9 | 7.0 | 0.00 | 0.00 | 0.00 | 83 | 1008.0 |
| 20260904023530 | 72 | 328 | 1.7 | 7.8 | 0.00 | 0.00 | 0.00 | 83 | 1008.0 |
| 20260904023026 | 72 | 326 | 2.6 | 7.8 | 0.00 | 0.00 | 0.00 | 83 | 1008.0 |
| 20260904022526 | 72 | 313 | 2.6 | 4.3 | 0.00 | 0.00 | 0.00 | 83 | 1007.9 |
| 20260904022029 | 72 | 52 | 0.0 | 0.9 | 0.00 | 0.00 | 0.00 | 82 | 1007.6 |
| 20260904021530 | 72 | 52 | 0.0 | 1.7 | 0.00 | 0.00 | 0.00 | 82 | 1007.4 |
| 20260904021026 | 72 | 52 | 0.0 | 2.6 | 0.00 | 0.00 | 0.00 | 82 | 1007.4 |
| 20260904020525 | 72 | 51 | 0.9 | 3.5 | 0.00 | 0.00 | 0.00 | 82 | 1007.2 |
| 20260904020025 | 72 | 53 | 0.9 | 3.5 | 0.00 | 0.00 | 0.00 | 82 | 1007.0 |
| 20260904015530 | 72 | 93 | 1.7 | 3.5 | 0.00 | 0.00 | 0.00 | 82 | 1007.0 |
| 20260904015027 | 72 | 103 | 1.7 | 3.5 | 0.00 | 0.00 | 0.00 | 82 | 1007.0 |
| 20260904014525 | 72 | 72 | 1.7 | 3.5 | 0.00 | 0.00 | 0.00 | 82 | 1007.1 |
| 20260904014027 | 73 | 96 | 1.7 | 3.5 | 0.00 | 0.00 | 0.00 | 81 | 1007.1 |
| 20260904013524 | 73 | 102 | 1.7 | 3.5 | 0.00 | 0.00 | 0.00 | 81 | 1007.0 |
| 20260904013024 | 73 | 81 | 1.7 | 5.2 | 0.00 | 0.00 | 0.00 | 80 | 1007.0 |
| 20260904012524 | 73 | 55 | 2.6 | 5.2 | 0.00 | 0.00 | 0.00 | 80 | 1007.1 |
| 20260904012024 | 73 | 53 | 1.7 | 4.3 | 0.00 | 0.00 | 0.00 | 80 | 1007.0 |
| 20260904011525 | 73 | 59 | 0.9 | 4.3 | 0.00 | 0.00 | 0.00 | 80 | 1006.9 |
| 20260904011024 | 73 | 49 | 0.9 | 4.3 | 0.00 | 0.00 | 0.00 | 80 | 1007.0 |
| 20260904010524 | 73 | 49 | 0.9 | 5.2 | 0.00 | 0.00 | 0.00 | 79 | 1007.0 |
| 20260904010023 | 74 | 34 | 2.6 | 6.1 | 0.00 | 0.00 | 0.00 | 79 | 1007.0 |
| 20260904005523 | 74 | 56 | 2.6 | 7.8 | 0.00 | 0.00 | 0.00 | 79 | 1007.0 |
| 20260904005023 | 74 | 86 | 3.5 | 7.8 | 0.00 | 0.00 | 0.00 | 78 | 1007.1 |
| 20260904004527 | 74 | 55 | 3.5 | 9.6 | 0.00 | 0.00 | 0.00 | 78 | 1007.0 |
| 20260904004023 | 74 | 73 | 3.5 | 12.2 | 0.00 | 0.00 | 0.00 | 77 | 1006.9 |
| 20260904003522 | 75 | 51 | 3.5 | 12.2 | 0.00 | 0.00 | 0.00 | 77 | 1006.7 |
| 20260904003024 | 75 | 360 | 5.2 | 10.4 | 0.00 | 0.00 | 0.00 | 76 | 1006.8 |
| 20260904002525 | 75 | 75 | 4.3 | 10.4 | 0.00 | 0.00 | 0.00 | 76 | 1006.7 |
| 20260904002023 | 75 | 86 | 5.2 | 9.6 | 0.00 | 0.00 | 0.00 | 75 | 1006.5 |
| 20260904001523 | 75 | 90 | 3.5 | 12.2 | 0.00 | 0.00 | 0.00 | 75 | 1006.4 |
| 20260904001022 | 75 | 46 | 6.1 | 12.2 | 0.00 | 0.00 | 0.00 | 75 | 1006.4 |
| 20260904000522 | 75 | 63 | 4.3 | 13.0 | 0.00 | 0.00 | 0.00 | 75 | 1006.3 |
| 20260904000022 | 76 | 48 | 6.1 | 13.0 | 0.00 | 0.00 | 0.00 | 74 | 1006.4 |
| 20260903235521 | 76 | 50 | 4.3 | 11.3 | 0.00 | 0.00 | 0.00 | 75 | 1006.4 |
| 20260903235021 | 76 | 74 | 6.1 | 11.3 | 0.00 | 0.00 | 0.00 | 74 | 1006.3 |
| 20260903234521 | 76 | 96 | 4.3 | 12.2 | 0.00 | 0.00 | 0.00 | 73 | 1006.4 |
| 20260903234021 | 77 | 355 | 7.0 | 12.2 | 0.00 | 0.00 | 0.00 | 72 | 1006.6 |
| 20260903233521 | 77 | 43 | 4.3 | 10.4 | 0.00 | 0.00 | 0.00 | 74 | 1006.7 |
| 20260903233032 | 77 | 51 | 2.6 | 9.6 | 0.00 | 0.00 | 0.00 | 75 | 1006.7 |
| 20260903232520 | 76 | 59 | 5.2 | 14.8 | 0.00 | 0.00 | 0.00 | 74 | 1006.6 |
| 20260903232020 | 77 | 22 | 8.7 | 14.8 | 0.00 | 0.00 | 0.00 | 73 | 1006.7 |
| 20260903231535 | 77 | 35 | 5.2 | 11.3 | 0.00 | 0.00 | 0.00 | 72 | 1006.7 |
| 20260903231019 | 77 | 5 | 6.1 | 13.0 | 0.00 | 0.00 | 0.00 | 71 | 1006.4 |
| 20260903230524 | 77 | 48 | 7.0 | 15.6 | 0.00 | 0.00 | 0.00 | 71 | 1006.4 |
| 20260903230020 | 77 | 43 | 6.1 | 15.6 | 0.00 | 0.00 | 0.00 | 70 | 1006.6 |
| 20260903225519 | 78 | 50 | 7.8 | 15.6 | 0.00 | 0.00 | 0.00 | 70 | 1006.7 |
| 20260903225019 | 78 | 45 | 7.0 | 15.6 | 0.00 | 0.00 | 0.00 | 71 | 1006.7 |
| 20260903224519 | 77 | 56 | 3.5 | 9.6 | 0.00 | 0.00 | 0.00 | 72 | 1006.6 |
| 20260903224019 | 77 | 58 | 3.5 | 10.4 | 0.00 | 0.00 | 0.00 | 73 | 1006.8 |
| 20260903223521 | 77 | 360 | 5.2 | 16.5 | 0.00 | 0.00 | 0.00 | 74 | 1006.8 |
| 20260903223018 | 77 | 15 | 5.2 | 16.5 | 0.00 | 0.00 | 0.00 | 74 | 1006.9 |
| 20260903222519 | 77 | 30 | 7.8 | 14.8 | 0.00 | 0.00 | 0.00 | 73 | 1006.9 |
| 20260903222018 | 77 | 34 | 5.2 | 13.0 | 0.00 | 0.00 | 0.00 | 73 | 1006.7 |
| 20260903221518 | 77 | 44 | 6.1 | 14.8 | 0.00 | 0.00 | 0.00 | 73 | 1006.7 |
| 20260903221022 | 77 | 93 | 7.8 | 14.8 | 0.00 | 0.00 | 0.00 | 73 | 1006.7 |
| 20260903220518 | 77 | 46 | 6.1 | 14.8 | 0.00 | 0.00 | 0.00 | 74 | 1006.7 |
| 20260903220019 | 76 | 22 | 7.0 | 14.8 | 0.00 | 0.00 | 0.00 | 74 | 1006.7 |
| 20260903215517 | 76 | 331 | 7.0 | 13.9 | 0.00 | 0.00 | 0.00 | 74 | 1006.7 |
| 20260903215017 | 75 | 19 | 6.1 | 14.8 | 0.00 | 0.00 | 0.00 | 76 | 1006.8 |
| 20260903214516 | 75 | 34 | 7.8 | 14.8 | 0.00 | 0.00 | 0.00 | 77 | 1006.7 |
| 20260903214017 | 74 | 68 | 7.0 | 14.8 | 0.00 | 0.00 | 0.00 | 78 | 1006.7 |
| 20260903213517 | 74 | 68 | 7.0 | 13.0 | 0.00 | 0.00 | 0.00 | 79 | 1006.7 |
| 20260903213016 | 74 | 55 | 5.2 | 13.0 | 0.00 | 0.00 | 0.00 | 80 | 1006.8 |
| 20260903212516 | 73 | 21 | 5.2 | 15.6 | 0.00 | 0.00 | 0.00 | 82 | 1006.8 |
| 20260903212017 | 72 | 37 | 7.8 | 16.5 | 0.00 | 0.00 | 0.00 | 83 | 1006.7 |
| 20260903211516 | 72 | 60 | 9.6 | 16.5 | 0.00 | 0.00 | 0.00 | 84 | 1006.8 |
| 20260903211015 | 71 | 330 | 7.8 | 15.6 | 0.00 | 0.00 | 0.00 | 85 | 1006.9 |
| 20260903210515 | 71 | 350 | 7.0 | 17.4 | 0.00 | 0.00 | 0.00 | 87 | 1006.8 |
| 20260903210015 | 70 | 42 | 8.7 | 17.4 | 0.00 | 0.00 | 0.00 | 87 | 1006.8 |
| 20260903205514 | 70 | 115 | 7.0 | 20.9 | 0.00 | 0.00 | 0.00 | 87 | 1006.5 |
| 20260903205014 | 70 | 14 | 8.7 | 20.9 | 0.00 | 0.00 | 0.00 | 87 | 1006.5 |
| 20260903204513 | 70 | 51 | 8.7 | 25.2 | 0.00 | 0.00 | 0.00 | 85 | 1006.8 |
| 20260903204013 | 71 | 33 | 14.8 | 25.2 | 0.00 | 0.00 | 0.00 | 81 | 1006.9 |
| 20260903203511 | 73 | 46 | 8.7 | 21.7 | 0.00 | 0.00 | 0.00 | 78 | 1006.9 |
| 20260903203012 | 73 | 43 | 12.2 | 21.7 | 0.00 | 0.00 | 0.00 | 75 | 1007.0 |
| 20260903202511 | 74 | 301 | 7.0 | 19.1 | 0.00 | 0.00 | 0.00 | 75 | 1007.2 |
| 20260903202011 | 74 | 15 | 7.8 | 21.7 | 0.00 | 0.00 | 0.00 | 75 | 1007.0 |
| 20260903201511 | 76 | 335 | 7.8 | 21.7 | 0.00 | 0.00 | 0.00 | 72 | 1006.8 |
| 20260903201009 | 76 | 344 | 6.1 | 13.0 | 0.00 | 0.00 | 0.00 | 74 | 1006.8 |
| 20260903200509 | 75 | 16 | 7.0 | 26.1 | 0.00 | 0.00 | 0.00 | 71 | 1006.7 |
| 20260903200118 | 79 | 347 | 10.4 | 26.1 | 0.00 | 0.00 | 0.00 | 63 | 1006.7 |
| 20260903195508 | 88 | 333 | 2.6 | 7.0 | 0.00 | 0.00 | 0.00 | 61 | 1006.3 |
| 20260903195008 | 88 | 34 | 0.9 | 9.6 | 0.00 | 0.00 | 0.00 | 61 | 1005.7 |
| 20260903194508 | 88 | 30 | 3.5 | 13.9 | 0.00 | 0.00 | 0.00 | 60 | 1005.6 |
| 20260903194007 | 89 | 75 | 3.5 | 13.9 | 0.00 | 0.00 | 0.00 | 60 | 1005.4 |
| 20260903193508 | 89 | 138 | 3.5 | 12.2 | 0.00 | 0.00 | 0.00 | 59 | 1005.1 |
| 20260903193012 | 89 | 86 | 5.2 | 12.2 | 0.00 | 0.00 | 0.00 | 59 | 1004.9 |
| 20260903192508 | 89 | 94 | 3.5 | 12.2 | 0.00 | 0.00 | 0.00 | 60 | 1004.8 |
| 20260903192005 | 88 | 69 | 6.1 | 12.2 | 0.00 | 0.00 | 0.00 | 61 | 1004.8 |
| 20260903191517 | 88 | 105 | 3.5 | 10.4 | 0.00 | 0.00 | 0.00 | 61 | 1004.9 |
| 20260903191005 | 88 | 158 | 4.3 | 12.2 | 0.00 | 0.00 | 0.00 | 61 | 1005.0 |
| 20260903190505 | 88 | 79 | 5.2 | 12.2 | 0.00 | 0.00 | 0.00 | 61 | 1004.9 |
| 20260903190005 | 88 | 144 | 5.2 | 13.0 | 0.00 | 0.00 | 0.00 | 61 | 1004.9 |
| 20260903185504 | 88 | 86 | 7.0 | 13.0 | 0.00 | 0.00 | 0.00 | 61 | 1005.0 |
| 20260903185002 | 88 | 68 | 6.1 | 12.2 | 0.00 | 0.00 | 0.00 | 62 | 1005.0 |
| 20260903184501 | 87 | 117 | 6.1 | 11.3 | 0.00 | 0.00 | 0.00 | 62 | 1005.1 |
| 20260903184102 | 87 | 116 | 5.2 | 10.4 | 0.00 | 0.00 | 0.00 | 63 | 1005.2 |
| 20260903183559 | 87 | 72 | 4.3 | 13.0 | 0.00 | 0.00 | 0.00 | 63 | 1005.3 |
| 20260903183102 | 87 | 157 | 5.2 | 13.0 | 0.00 | 0.00 | 0.00 | 63 | 1005.4 |
| 20260903182558 | 87 | 125 | 4.3 | 13.0 | 0.00 | 0.00 | 0.00 | 64 | 1005.4 |
| 20260903182058 | 86 | 125 | 4.3 | 12.2 | 0.00 | 0.00 | 0.00 | 65 | 1005.5 |
| 20260903181556 | 86 | 5 | 6.1 | 12.2 | 0.00 | 0.00 | 0.00 | 65 | 1005.8 |
| 20260903181054 | 85 | 94 | 4.3 | 10.4 | 0.00 | 0.00 | 0.00 | 67 | 1005.8 |
| 20260903180556 | 85 | 43 | 5.2 | 14.8 | 0.00 | 0.00 | 0.00 | 67 | 1005.9 |
| 20260903180054 | 84 | 122 | 5.2 | 14.8 | 0.00 | 0.00 | 0.00 | 67 | 1006.1 |
| 20260903175554 | 85 | 54 | 6.1 | 12.2 | 0.00 | 0.00 | 0.00 | 67 | 1006.2 |
| 20260903175053 | 85 | 75 | 5.2 | 13.9 | 0.00 | 0.00 | 0.00 | 67 | 1006.1 |
| 20260903174553 | 85 | 101 | 6.1 | 13.9 | 0.00 | 0.00 | 0.00 | 67 | 1006.1 |
| 20260903174052 | 85 | 144 | 7.8 | 13.0 | 0.00 | 0.00 | 0.00 | 66 | 1006.1 |
| 20260903173552 | 85 | 142 | 5.2 | 12.2 | 0.00 | 0.00 | 0.00 | 66 | 1006.0 |
| 20260903173052 | 85 | 131 | 6.1 | 14.8 | 0.00 | 0.00 | 0.00 | 66 | 1006.0 |
| 20260903172552 | 85 | 109 | 7.8 | 14.8 | 0.00 | 0.00 | 0.00 | 66 | 1006.0 |
| 20260903172050 | 85 | 130 | 7.0 | 14.8 | 0.00 | 0.00 | 0.00 | 66 | 1006.0 |
| 20260903171604 | 84 | 168 | 7.0 | 15.6 | 0.00 | 0.00 | 0.00 | 67 | 1006.1 |
| 20260903171047 | 84 | 155 | 7.0 | 15.6 | 0.00 | 0.00 | 0.00 | 69 | 1006.1 |
| 20260903170546 | 84 | 171 | 6.1 | 11.3 | 0.00 | 0.00 | 0.00 | 69 | 1006.2 |
| 20260903170051 | 83 | 161 | 4.3 | 12.2 | 0.00 | 0.00 | 0.00 | 69 | 1006.4 |
| 20260903165544 | 83 | 161 | 4.3 | 12.2 | 0.00 | 0.00 | 0.00 | 70 | 1006.5 |
| 20260903165044 | 82 | 52 | 3.5 | 11.3 | 0.00 | 0.00 | 0.00 | 71 | 1006.5 |
| 20260903164541 | 82 | 116 | 5.2 | 11.3 | 0.00 | 0.00 | 0.00 | 71 | 1006.5 |
| 20260903164041 | 81 | 47 | 6.1 | 13.0 | 0.00 | 0.00 | 0.00 | 71 | 1006.6 |
| 20260903163540 | 81 | 123 | 6.1 | 15.6 | 0.00 | 0.00 | 0.00 | 72 | 1006.7 |
| 20260903163043 | 82 | 90 | 7.0 | 15.6 | 0.00 | 0.00 | 0.00 | 71 | 1006.7 |
| 20260903162539 | 82 | 98 | 7.8 | 14.8 | 0.00 | 0.00 | 0.00 | 71 | 1006.6 |
| 20260903162038 | 81 | 123 | 6.1 | 13.0 | 0.00 | 0.00 | 0.00 | 72 | 1006.5 |
| 20260903161537 | 80 | 110 | 7.0 | 12.2 | 0.00 | 0.00 | 0.00 | 74 | 1006.4 |
| 20260903161034 | 79 | 58 | 7.0 | 10.4 | 0.00 | 0.00 | 0.00 | 75 | 1006.7 |
| 20260903160534 | 79 | 112 | 4.3 | 9.6 | 0.00 | 0.00 | 0.00 | 74 | 1007.1 |
| 20260903160033 | 79 | 108 | 4.3 | 8.7 | 0.00 | 0.00 | 0.00 | 74 | 1007.1 |
| 20260903155536 | 79 | 142 | 2.6 | 7.8 | 0.00 | 0.00 | 0.00 | 73 | 1007.5 |
| 20260903155038 | 80 | 131 | 3.5 | 9.6 | 0.00 | 0.00 | 0.00 | 72 | 1007.6 |
| 20260903154533 | 80 | 96 | 4.3 | 9.6 | 0.00 | 0.00 | 0.00 | 72 | 1007.5 |
| 20260903154033 | 80 | 83 | 5.2 | 9.6 | 0.00 | 0.00 | 0.00 | 72 | 1007.6 |
| 20260903153529 | 79 | 92 | 3.5 | 11.3 | 0.00 | 0.00 | 0.00 | 73 | 1007.3 |
| 20260903153029 | 79 | 84 | 5.2 | 12.2 | 0.00 | 0.00 | 0.00 | 72 | 1007.2 |
| 20260903152527 | 79 | 97 | 7.0 | 12.2 | 0.00 | 0.00 | 0.00 | 73 | 1007.2 |
| 20260903152026 | 78 | 134 | 4.3 | 10.4 | 0.00 | 0.00 | 0.00 | 73 | 1007.3 |
| 20260903151525 | 77 | 83 | 5.2 | 12.2 | 0.00 | 0.00 | 0.00 | 73 | 1007.5 |
| 20260903151023 | 77 | 131 | 5.2 | 12.2 | 0.00 | 0.00 | 0.00 | 74 | 1007.4 |
| 20260903150522 | 76 | 91 | 6.1 | 12.2 | 0.00 | 0.00 | 0.00 | 75 | 1007.2 |
| 20260903150034 | 76 | 101 | 7.0 | 12.2 | 0.00 | 0.00 | 0.00 | 74 | 1007.3 |
| 20260903145520 | 76 | 103 | 4.3 | 10.4 | 0.00 | 0.00 | 0.00 | 74 | 1007.3 |
| 20260903145018 | 76 | 143 | 4.3 | 10.4 | 0.00 | 0.00 | 0.00 | 74 | 1007.5 |
| 20260903144517 | 76 | 114 | 3.5 | 10.4 | 0.00 | 0.00 | 0.00 | 74 | 1007.6 |
| 20260903144017 | 75 | 95 | 4.3 | 11.3 | 0.00 | 0.00 | 0.00 | 75 | 1007.7 |
| 20260903143514 | 75 | 101 | 5.2 | 11.3 | 0.00 | 0.00 | 0.00 | 75 | 1007.8 |
| 20260903143013 | 74 | 76 | 4.3 | 11.3 | 0.00 | 0.00 | 0.00 | 75 | 1007.8 |
| 20260903142512 | 74 | 69 | 4.3 | 12.2 | 0.00 | 0.00 | 0.00 | 75 | 1008.0 |
| 20260903142010 | 74 | 66 | 7.0 | 12.2 | 0.00 | 0.00 | 0.00 | 75 | 1007.9 |
| 20260903141511 | 74 | 19 | 5.2 | 11.3 | 0.00 | 0.00 | 0.00 | 75 | 1007.9 |
| 20260903141010 | 73 | 47 | 7.0 | 11.3 | 0.00 | 0.00 | 0.00 | 76 | 1008.0 |
| 20260903140507 | 73 | 68 | 4.3 | 11.3 | 0.00 | 0.00 | 0.00 | 76 | 1008.1 |
| 20260903140004 | 73 | 82 | 4.3 | 10.4 | 0.00 | 0.00 | 0.00 | 76 | 1008.1 |
| 20260903135507 | 73 | 108 | 6.1 | 10.4 | 0.00 | 0.00 | 0.00 | 76 | 1008.2 |
| 20260903135003 | 72 | 64 | 5.2 | 10.4 | 0.00 | 0.00 | 0.00 | 76 | 1008.2 |
| 20260903134502 | 72 | 100 | 6.1 | 10.4 | 0.00 | 0.00 | 0.00 | 76 | 1008.3 |
| 20260903134004 | 72 | 105 | 4.3 | 9.6 | 0.00 | 0.00 | 0.00 | 77 | 1008.5 |
| 20260903133604 | 72 | 72 | 3.5 | 8.7 | 0.00 | 0.00 | 0.00 | 77 | 1008.6 |
| 20260903133103 | 71 | 97 | 5.2 | 8.7 | 0.00 | 0.00 | 0.00 | 77 | 1008.6 |
| 20260903132558 | 71 | 65 | 3.5 | 7.8 | 0.00 | 0.00 | 0.00 | 77 | 1008.6 |
| 20260903132058 | 71 | 64 | 3.5 | 7.0 | 0.00 | 0.00 | 0.00 | 78 | 1008.5 |
| 20260903131607 | 71 | 100 | 2.6 | 7.8 | 0.00 | 0.00 | 0.00 | 78 | 1008.5 |
| 20260903131059 | 70 | 84 | 3.5 | 7.8 | 0.00 | 0.00 | 0.00 | 78 | 1008.4 |
| 20260903130555 | 70 | 86 | 4.3 | 8.7 | 0.00 | 0.00 | 0.00 | 78 | 1008.6 |
| 20260903130056 | 70 | 78 | 4.3 | 8.7 | 0.00 | 0.00 | 0.00 | 78 | 1008.6 |
| 20260903125555 | 70 | 80 | 4.3 | 6.1 | 0.00 | 0.00 | 0.00 | 77 | 1008.6 |
| 20260903125055 | 70 | 67 | 1.7 | 6.1 | 0.00 | 0.00 | 0.00 | 77 | 1008.6 |
| 20260903124606 | 70 | 32 | 2.6 | 8.7 | 0.00 | 0.00 | 0.00 | 78 | 1008.6 |
| 20260903124053 | 70 | 92 | 3.5 | 9.6 | 0.00 | 0.00 | 0.00 | 78 | 1008.5 |
| 20260903123551 | 69 | 96 | 4.3 | 9.6 | 0.00 | 0.00 | 0.00 | 78 | 1008.4 |
| 20260903123050 | 69 | 165 | 5.2 | 8.7 | 0.00 | 0.00 | 0.00 | 79 | 1008.3 |
| 20260903122549 | 69 | 63 | 3.5 | 8.7 | 0.00 | 0.00 | 0.00 | 79 | 1008.4 |
| 20260903122048 | 69 | 116 | 3.5 | 7.8 | 0.00 | 0.00 | 0.00 | 79 | 1008.5 |
| 20260903121547 | 69 | 73 | 3.5 | 8.7 | 0.00 | 0.00 | 0.00 | 79 | 1008.3 |
| 20260903121046 | 68 | 26 | 3.5 | 8.7 | 0.00 | 0.00 | 0.00 | 79 | 1008.5 |
| 20260903120545 | 68 | 75 | 3.5 | 7.8 | 0.00 | 0.00 | 0.00 | 79 | 1008.5 |
| 20260903120055 | 68 | 86 | 4.3 | 7.8 | 0.00 | 0.00 | 0.00 | 78 | 1008.4 |
| 20260903115543 | 69 | 98 | 4.3 | 7.8 | 0.00 | 0.00 | 0.00 | 78 | 1008.4 |
| 20260903115043 | 69 | 95 | 3.5 | 7.0 | 0.00 | 0.00 | 0.00 | 78 | 1008.6 |
| 20260903114543 | 69 | 96 | 1.7 | 7.0 | 0.00 | 0.00 | 0.00 | 78 | 1008.6 |
| 20260903114042 | 69 | 92 | 3.5 | 7.0 | 0.00 | 0.00 | 0.00 | 78 | 1008.7 |
| 20260903113545 | 69 | 102 | 3.5 | 7.0 | 0.00 | 0.00 | 0.00 | 77 | 1008.7 |
| 20260903113047 | 69 | 98 | 3.5 | 7.8 | 0.00 | 0.00 | 0.00 | 77 | 1008.8 |
| 20260903112543 | 69 | 126 | 2.6 | 7.0 | 0.00 | 0.00 | 0.00 | 77 | 1008.8 |
| 20260903112041 | 69 | 92 | 2.6 | 7.0 | 0.00 | 0.00 | 0.00 | 77 | 1008.8 |
| 20260903111540 | 69 | 111 | 4.3 | 7.0 | 0.00 | 0.00 | 0.00 | 77 | 1008.9 |
| 20260903111039 | 69 | 56 | 2.6 | 6.1 | 0.00 | 0.00 | 0.00 | 77 | 1009.0 |
| 20260903110538 | 69 | 97 | 2.6 | 6.1 | 0.00 | 0.00 | 0.00 | 77 | 1009.2 |
| 20260903110038 | 69 | 98 | 2.6 | 6.1 | 0.00 | 0.00 | 0.00 | 77 | 1009.2 |
| 20260903105541 | 68 | 96 | 2.6 | 5.2 | 0.00 | 0.00 | 0.00 | 77 | 1009.2 |
| 20260903105039 | 68 | 94 | 1.7 | 4.3 | 0.00 | 0.00 | 0.00 | 77 | 1009.1 |
| 20260903104539 | 68 | 79 | 1.7 | 5.2 | 0.00 | 0.00 | 0.00 | 77 | 1009.1 |
| 20260903104037 | 68 | 50 | 1.7 | 5.2 | 0.00 | 0.00 | 0.00 | 77 | 1009.0 |
| 20260903103537 | 68 | 74 | 2.6 | 5.2 | 0.00 | 0.00 | 0.00 | 78 | 1009.1 |
| 20260903103036 | 68 | 78 | 1.7 | 5.2 | 0.00 | 0.00 | 0.00 | 78 | 1009.2 |
| 20260903102536 | 68 | 63 | 2.6 | 5.2 | 0.00 | 0.00 | 0.00 | 78 | 1009.2 |
| 20260903102035 | 68 | 51 | 2.6 | 5.2 | 0.00 | 0.00 | 0.00 | 78 | 1009.3 |
| 20260903101544 | 67 | 92 | 1.7 | 5.2 | 0.00 | 0.00 | 0.00 | 78 | 1009.4 |
| 20260903101035 | 67 | 79 | 0.9 | 3.5 | 0.00 | 0.00 | 0.00 | 78 | 1009.4 |
| 20260903100535 | 67 | 81 | 1.7 | 4.3 | 0.00 | 0.00 | 0.00 | 78 | 1009.3 |
| 20260903100036 | 67 | 71 | 1.7 | 4.3 | 0.00 | 0.00 | 0.00 | 78 | 1009.2 |
| 20260903095534 | 67 | 82 | 1.7 | 3.5 | 0.00 | 0.00 | 0.00 | 78 | 1009.3 |
| 20260903095033 | 67 | 68 | 1.7 | 4.3 | 0.00 | 0.00 | 0.00 | 78 | 1009.3 |
| 20260903094533 | 67 | 60 | 1.7 | 4.3 | 0.00 | 0.00 | 0.00 | 78 | 1009.4 |
| 20260903094034 | 67 | 66 | 1.7 | 3.5 | 0.00 | 0.00 | 0.00 | 78 | 1009.5 |
| 20260903093532 | 67 | 57 | 0.9 | 3.5 | 0.00 | 0.00 | 0.00 | 78 | 1009.6 |
| 20260903093040 | 67 | 56 | 0.9 | 3.5 | 0.00 | 0.00 | 0.00 | 78 | 1009.7 |
| 20260903092531 | 67 | 58 | 0.9 | 3.5 | 0.00 | 0.00 | 0.00 | 78 | 1009.7 |
| 20260903092031 | 67 | 59 | 1.7 | 4.3 | 0.00 | 0.00 | 0.00 | 78 | 1009.7 |
| 20260903091530 | 67 | 53 | 0.9 | 2.6 | 0.00 | 0.00 | 0.00 | 78 | 1009.7 |